Tracking 19651 objects as of 22-Apr-2019
HD Live streaming from Space Station
objects crossing your sky now

SCOUT D-1 DEB

Track SCOUT D-1 DEB now!
10-day predictions


NORAD ID: 12858
Int'l Code: 1977-106C
Perigee: 1,069.8 km
Apogee: 1,099.1 km
Inclination: 89.5 °
Period: 106.8 minutes
Semi major axis: 7455 km
RCS: 0.0464 m2 (small)
Launch date: October 28, 1977
Source: United States (US)
Launch site: AIR FORCE WESTERN TEST RANGE (AFWTR)

Note: This is SATELLITE DEBRIS
aabbcc
Your satellite tracking list
Your tracking list is empty




NASA's NSSDC Master Catalog

Two Line Element Set (TLE):
1 12858U 77106C   19111.78896983  .00000044  00000-0  52848-4 0  9995
2 12858  89.4755 121.6564 0019699  74.7241 338.6970 13.48629468939679
Source of the keplerian elements: AFSPC